Location: Abraham Lincoln Continuation High School
(33.9711°N, 117.3662°W)
Time: 04:26:20
(UTC+00:00)

Cosmos 1300 Rocket - Pass Details

Date: 21 September 2020
Orbit: 601 x 627 km, 82.5° (Epoch: 25 October)

Event Time Altitude Azimuth Distance (km) Brightness Sun altitude
Rises 02:49:04 0° 180° (S) 2,867 6.9 -13.4°
Reaches altitude 10° 02:51:17 10° 177° (S) 1,971 6.0 -13.9°
Maximum altitude 02:55:37 70° 95° (E) 663 3.4 -14.8°
Drops below altitude 10° 03:00:01 10° 12° (NNE) 1,998 6.2 -15.6°
Sets 03:02:16 0° 10° (N) 2,911 7.0 -16.1°
